Погода в Боровом

Россия / Челябинская область     52°39′44″N   60°25′50″E
темп.,
°C
ветер,
м/с
пор.,
м/с
влажн.,
%
обл.,
%
осадки,
мм/ч
давл.,
гПа
погр.,
м
13 апреля, вт
вт1323:00+3всв34938 0.0 103855
02:00+3св479041 0.0 103995
05:00+5св37100100 0.0 1039121
08:00+5св489610 0.0 1040221
11:00+8всв57802 0.0 1041485
14:00+11в56710 0.0 1040745
17:00+11в45690 0.0 1039670
20:00+7вюв34830 0.0 103856
14 апреля, ср
ср1423:00+5юв23920 0.0 103944
02:00+3юв23930 0.0 103836
05:00+2юв22920 0.0 103710
08:00+4в12850 0.0 103783
11:00+8вюв23614 0.0 1035371
14:00+12вюв33455 0.0 1033584
17:00+14вюв33395 0.0 1031618
20:00+10юв225740 0.0 103115
15 апреля, чт
чт1523:00+7ю226815 0.0 103111
02:00+5ю11689 0.0 103010
05:00+4ююз11645 0.0 102910
08:00+6зюз11625 0.0 102824
11:00+11ююв224466 0.0 1027299
14:00+15ююв2235100 0.0 1024565
17:00+15ююв113497 0.0 1022651
20:00+12ююз114820 0.0 102110
16 апреля, пт
пт1623:00+9ююз22556 0.0 102010
02:00+8зюз226043 0.0 101910
05:00+6сз22615 0.0 101810
08:00+8ссз11605 0.0 101716
11:00+13ссв114375 0.0 1015371
14:00+15ссв2237100 0.0 1014885
17:00+16ссв223659 0.0 10131163
20:00+12ссв3360100 0.0 101321
17 апреля, сб
сб1723:00+10всв226764 0.0 101211
02:00+8ссв477880 0.0 1012119
05:00+6св5791100 0.0 1013392
08:00+5ссв4592100 0.0 1013364
11:00+5ссв5591100 0.0 1013454
14:00+2ссв5796100 0.1 1013424
17:00+2с5896100 0.5 1013500
20:00+1с369480 0.1 1014371